sat.trackr.live / text

‹ back to catalog

KUIPER-00046

NORAD 64506 · 2025-134G

PAYLOAD ACTIVE UNKNOWN

§ Identity

Operator
Country
US
Launch date
2025-06-23
Launch site
AFETR
Launch vehicle
Mass (kg)
RCS (m²)

External: N2YO · Heavens-Above · Gunter

§ Orbital elements

Epoch: 2026-05-25T01:31:07.156128Z

Period
97.30 min
Inclination
51.8980°
Eccentricity
0.0000510
Mean motion
14.79932721 rev/d
Perigee alt
629.2 km
Apogee alt
629.9 km
Semi-major
7,007.7 km
B*
1.4522e-4
RAAN
265.3166°
Arg perigee
97.7971°
Mean anomaly
262.3050°
Rev number
5,124

§ Raw data

KUIPER-000461 64506U 25134G   26145.06327727  .00000886  00000+0  14522-3 0  99962 64506  51.8980 265.3166 0000510  97.7971 262.3050 14.79932721 51244

JSON: /api/v1/satellites/64506 · /tle

For live sub-satellite position, see the globe view (requires WebGL).

§ Visibility from observer

Set your observer location to see the next 7 days of passes ≥ 10°. The values pass through the URL so the page stays shareable.

No JS? Fill the form by hand. The geolocation button needs JavaScript.